TimeCST,TemperatureF,Dew PointF,Humidity,Sea Level PressureIn,VisibilityMPH,Wind Direction,Wind SpeedMPH,Gust SpeedMPH,PrecipitationIn,Events,Conditions,WindDirDegrees,DateUTC
12:53 AM,32.0,26.1,79,30.31,10.0,SE,4.6,-,N/A,,Clear,140,2013-11-08 06:53:00
1:53 AM,30.9,25.0,79,30.28,10.0,SSE,4.6,-,N/A,,Clear,150,2013-11-08 07:53:00
2:53 AM,30.9,25.0,79,30.26,10.0,SE,3.5,-,N/A,,Clear,130,2013-11-08 08:53:00
3:53 AM,34.0,27.0,75,30.23,10.0,SSE,8.1,-,N/A,,Clear,160,2013-11-08 09:53:00
4:53 AM,36.0,28.9,76,30.20,10.0,SSE,10.4,-,N/A,,Clear,150,2013-11-08 10:53:00
5:53 AM,37.9,28.9,70,30.17,10.0,SE,10.4,-,N/A,,Clear,140,2013-11-08 11:53:00
6:53 AM,39.9,28.9,65,30.14,10.0,SE,11.5,-,N/A,,Clear,140,2013-11-08 12:53:00
7:53 AM,42.1,30.0,62,30.12,10.0,SSE,10.4,-,N/A,,Clear,150,2013-11-08 13:53:00
8:53 AM,46.0,32.0,58,30.08,10.0,SSE,17.3,26.5,N/A,,Clear,160,2013-11-08 14:53:00
9:53 AM,52.0,34.0,50,30.03,10.0,SSE,18.4,26.5,N/A,,Clear,160,2013-11-08 15:53:00
10:53 AM,54.0,33.1,45,29.97,10.0,SSE,20.7,28.8,N/A,,Clear,160,2013-11-08 16:53:00
11:53 AM,57.9,33.1,39,29.92,10.0,South,18.4,26.5,N/A,,Clear,170,2013-11-08 17:53:00
12:53 PM,63.0,32.0,31,29.86,10.0,South,20.7,32.2,N/A,,Clear,180,2013-11-08 18:53:00
1:53 PM,64.9,33.1,31,29.81,10.0,South,21.9,31.1,N/A,,Clear,180,2013-11-08 19:53:00
2:53 PM,68.0,30.0,24,29.81,10.0,SSW,25.3,38.0,N/A,,Clear,210,2013-11-08 20:53:00
3:53 PM,66.9,30.0,25,29.81,10.0,SW,26.5,34.5,N/A,,Clear,220,2013-11-08 21:53:00
4:53 PM,64.0,32.0,30,29.83,10.0,SW,17.3,27.6,N/A,,Clear,220,2013-11-08 22:53:00
5:53 PM,62.1,32.0,32,29.83,10.0,SSW,15.0,24.2,N/A,,Clear,210,2013-11-08 23:53:00
6:53 PM,59.0,32.0,36,29.84,10.0,SSW,12.7,23.0,N/A,,Clear,200,2013-11-09 00:53:00
7:53 PM,59.0,32.0,36,29.86,10.0,SSW,17.3,24.2,N/A,,Clear,210,2013-11-09 01:53:00
8:53 PM,57.0,33.1,40,29.87,10.0,SSW,16.1,29.9,N/A,,Clear,210,2013-11-09 02:53:00
9:53 PM,55.9,34.0,44,29.89,10.0,SW,12.7,-,N/A,,Clear,230,2013-11-09 03:53:00
10:53 PM,54.0,34.0,47,29.92,10.0,West,5.8,-,N/A,,Clear,260,2013-11-09 04:53:00
11:53 PM,50.0,34.0,54,29.94,10.0,West,3.5,-,N/A,,Clear,270,2013-11-09 05:53:00